| time (UTC) | temp F | wind direction | speed MPH | gust MPH | rain 1hr in | rain 24hr in | rain mn in | humidity % | barometer mb |
| 20260905181508 | 60 | 210 | 3.0 | 15.0 | 0.00 | 0.05 | 0.05 | 90 | 1000.1 |
| 20260905180008 | 60 | 284 | 3.0 | 21.0 | 0.00 | 0.05 | 0.05 | 90 | 1000.0 |
| 20260905174506 | 60 | 241 | 3.0 | 16.0 | 0.00 | 0.05 | 0.05 | 89 | 999.9 |
| 20260905173007 | 60 | 77 | 4.0 | 18.0 | 0.00 | 0.05 | 0.05 | 90 | 999.9 |
| 20260905171511 | 60 | 35 | 5.0 | 14.0 | 0.00 | 0.05 | 0.05 | 91 | 999.6 |
| 20260905170003 | 61 | 70 | 5.0 | 11.0 | 0.00 | 0.05 | 0.05 | 91 | 999.4 |
| 20260905164502 | 61 | 99 | 5.0 | 18.0 | 0.00 | 0.05 | 0.05 | 91 | 999.3 |
| 20260905163001 | 61 | 32 | 6.0 | 18.0 | 0.00 | 0.05 | 0.05 | 91 | 999.1 |
| 20260905161609 | 63 | 85 | 4.0 | 15.0 | 0.00 | 0.05 | 0.05 | 90 | 999.0 |
| 20260905160100 | 63 | 48 | 4.0 | 17.0 | 0.00 | 0.05 | 0.05 | 88 | 998.9 |
| 20260905154600 | 63 | 228 | 4.0 | 20.0 | 0.00 | 0.06 | 0.05 | 88 | 998.9 |
| 20260905153059 | 62 | 305 | 5.0 | 18.0 | 0.00 | 0.06 | 0.05 | 89 | 998.8 |
| 20260905151558 | 62 | 347 | 4.0 | 11.0 | 0.00 | 0.06 | 0.05 | 89 | 998.9 |
| 20260905150058 | 62 | 30 | 3.0 | 11.0 | 0.00 | 0.06 | 0.05 | 89 | 999.0 |
| 20260905144558 | 62 | 36 | 2.0 | 9.0 | 0.00 | 0.14 | 0.05 | 89 | 999.2 |
| 20260905143057 | 63 | 20 | 3.0 | 9.0 | 0.00 | 0.14 | 0.05 | 89 | 999.1 |
| 20260905141556 | 64 | 188 | 2.0 | 16.0 | 0.00 | 0.14 | 0.05 | 90 | 999.1 |
| 20260905140053 | 62 | 223 | 3.0 | 15.0 | 0.00 | 0.14 | 0.05 | 90 | 999.0 |
| 20260905134557 | 62 | 329 | 2.0 | 9.0 | 0.00 | 0.17 | 0.05 | 91 | 998.8 |
| 20260905133052 | 62 | 90 | 3.0 | 15.0 | 0.00 | 0.17 | 0.05 | 92 | 998.7 |
| 20260905131553 | 61 | 184 | 2.0 | 15.0 | 0.00 | 0.17 | 0.05 | 93 | 998.6 |
| 20260905130050 | 61 | 49 | 2.0 | 10.0 | 0.00 | 0.17 | 0.05 | 93 | 998.6 |
| 20260905124550 | 61 | 79 | 4.0 | 13.0 | 0.01 | 0.31 | 0.05 | 93 | 998.6 |
| 20260905123048 | 61 | 290 | 4.0 | 10.0 | 0.03 | 0.31 | 0.05 | 93 | 998.7 |
| 20260905121548 | 61 | 342 | 2.0 | 14.0 | 0.03 | 0.31 | 0.05 | 94 | 998.5 |
| 20260905120047 | 61 | 257 | 2.0 | 9.0 | 0.02 | 0.30 | 0.04 | 94 | 998.1 |
| 20260905114559 | 60 | 108 | 1.0 | 4.0 | 0.02 | 0.34 | 0.04 | 94 | 998.1 |
| 20260905113046 | 60 | 255 | 1.0 | 5.0 | 0.00 | 0.31 | 0.02 | 93 | 998.0 |
| 20260905111547 | 61 | 238 | 1.0 | 6.0 | 0.00 | 0.31 | 0.02 | 94 | 998.1 |
| 20260905110046 | 60 | 37 | 1.0 | 8.0 | 0.00 | 0.31 | 0.02 | 94 | 997.8 |
| 20260905104549 | 60 | 57 | 2.0 | 9.0 | 0.00 | 0.35 | 0.02 | 94 | 997.8 |
| 20260905103047 | 59 | 261 | 1.0 | 5.0 | 0.00 | 0.35 | 0.02 | 94 | 997.7 |
| 20260905101544 | 59 | 359 | 1.0 | 6.0 | 0.00 | 0.35 | 0.02 | 94 | 997.8 |
| 20260905100044 | 59 | 264 | 0.0 | 6.0 | 0.00 | 0.35 | 0.02 | 94 | 997.8 |
| 20260905094558 | 59 | 332 | 0.0 | 4.0 | 0.00 | 0.39 | 0.02 | 94 | 997.7 |
| 20260905093044 | 59 | 226 | 0.0 | 4.0 | 0.00 | 0.39 | 0.02 | 94 | 997.8 |
| 20260905091545 | 59 | 15 | 0.0 | 5.0 | 0.00 | 0.39 | 0.02 | 94 | 997.8 |
| 20260905090039 | 60 | 323 | 1.0 | 4.0 | 0.01 | 0.39 | 0.02 | 94 | 997.8 |
| 20260905084542 | 60 | 266 | 0.0 | 4.0 | 0.01 | 0.56 | 0.02 | 94 | 997.8 |
| 20260905083035 | 60 | 128 | 1.0 | 5.0 | 0.02 | 0.56 | 0.02 | 93 | 997.7 |
| 20260905081534 | 61 | 250 | 1.0 | 6.0 | 0.01 | 0.56 | 0.01 | 94 | 997.7 |
| 20260905080048 | 61 | 42 | 0.0 | 4.0 | 0.01 | 0.56 | 0.01 | 94 | 997.7 |
| 20260905074531 | 61 | 260 | 0.0 | 1.0 | 0.01 | 0.65 | 0.01 | 94 | 997.6 |
| 20260905073040 | 61 | 261 | 0.0 | 1.0 | 0.00 | 0.65 | 0.00 | 93 | 997.7 |
| 20260905071530 | 61 | 273 | 1.0 | 3.0 | 0.00 | 0.65 | 0.00 | 93 | 997.8 |
| 20260905070039 | 61 | 263 | 0.0 | 3.0 | 0.00 | 0.65 | 0.00 | 93 | 997.8 |
| 20260905064528 | 61 | 263 | 1.0 | 2.0 | 0.00 | 0.65 | 0.00 | 93 | 997.9 |
| 20260905063025 | 61 | 237 | 0.0 | 2.0 | 0.00 | 0.65 | 0.00 | 93 | 998.1 |
| 20260905061536 | 61 | 252 | 0.0 | 0.0 | 0.00 | 0.65 | 0.00 | 93 | 998.2 |
| 20260905060022 | 61 | 252 | 0.0 | 1.0 | 0.00 | 0.65 | 0.00 | 93 | 998.4 |
| 20260905054520 | 61 | 296 | 0.0 | 2.0 | 0.00 | 0.66 | 0.00 | 93 | 998.7 |
| 20260905053021 | 62 | 351 | 0.0 | 2.0 | 0.00 | 0.66 | 0.00 | 93 | 998.7 |
| 20260905051516 | 62 | 320 | 0.0 | 5.0 | 0.00 | 0.66 | 0.00 | 93 | 998.7 |
| 20260905050015 | 62 | 267 | 1.0 | 5.0 | 0.00 | 0.66 | 0.00 | 93 | 998.8 |
| 20260905044517 | 63 | 345 | 0.0 | 3.0 | 0.00 | 0.66 | 0.00 | 93 | 998.9 |
| 20260905043012 | 63 | 258 | 0.0 | 2.0 | 0.00 | 0.66 | 0.00 | 93 | 999.0 |
| 20260905041512 | 63 | 283 | 0.0 | 3.0 | 0.00 | 0.66 | 0.00 | 93 | 999.1 |
| 20260905040014 | 63 | 255 | 0.0 | 3.0 | 0.00 | 0.66 | 0.00 | 93 | 999.4 |
| 20260905034510 | 63 | 253 | 0.0 | 1.0 | 0.00 | 0.68 | 0.00 | 94 | 999.6 |
| 20260905033004 | 63 | 47 | 0.0 | 2.0 | 0.00 | 0.68 | 0.00 | 94 | 999.9 |
| 20260905031502 | 62 | 316 | 0.0 | 0.0 | 0.00 | 0.68 | 0.00 | 93 | 1000.2 |
| 20260905024559 | 63 | 316 | 0.0 | 1.0 | 0.00 | 0.69 | 0.68 | 93 | 1000.1 |
| 20260905023102 | 63 | 260 | 0.0 | 3.0 | 0.00 | 0.69 | 0.68 | 93 | 1000.4 |
| 20260905021554 | 64 | 285 | 0.0 | 2.0 | 0.00 | 0.69 | 0.68 | 93 | 1000.7 |
| 20260905020051 | 63 | 351 | 0.0 | 4.0 | 0.00 | 0.69 | 0.68 | 93 | 1000.9 |
| 20260905014549 | 63 | 259 | 0.0 | 3.0 | 0.00 | 0.69 | 0.68 | 93 | 1001.1 |
| 20260905013055 | 64 | 264 | 0.0 | 3.0 | 0.00 | 0.69 | 0.68 | 93 | 1001.5 |
| 20260905011545 | 64 | 272 | 0.0 | 1.0 | 0.00 | 0.69 | 0.68 | 93 | 1001.6 |
| 20260905010050 | 64 | 230 | 0.0 | 1.0 | 0.00 | 0.69 | 0.68 | 93 | 1001.7 |
| 20260905004542 | 65 | 262 | 0.0 | 1.0 | 0.00 | 0.69 | 0.68 | 93 | 1002.0 |
| 20260905003041 | 65 | 302 | 0.0 | 4.0 | 0.00 | 0.69 | 0.68 | 93 | 1002.1 |
| 20260905001540 | 65 | 304 | 0.0 | 3.0 | 0.00 | 0.69 | 0.68 | 93 | 1002.2 |
| 20260905000040 | 65 | 273 | 0.0 | 2.0 | 0.00 | 0.69 | 0.68 | 93 | 1002.2 |
| 20260904234545 | 65 | 259 | 0.0 | 2.0 | 0.00 | 0.69 | 0.68 | 93 | 1002.2 |
| 20260904233039 | 65 | 262 | 0.0 | 5.0 | 0.00 | 0.69 | 0.68 | 93 | 1002.1 |
| 20260904231538 | 66 | 257 | 0.0 | 3.0 | 0.00 | 0.69 | 0.68 | 93 | 1002.1 |
| 20260904230038 | 66 | 302 | 0.0 | 1.0 | 0.00 | 0.69 | 0.68 | 93 | 1002.1 |
| 20260904224542 | 66 | 260 | 0.0 | 1.0 | 0.00 | 0.69 | 0.68 | 93 | 1002.1 |
| 20260904223036 | 67 | 266 | 0.0 | 1.0 | 0.00 | 0.69 | 0.68 | 93 | 1002.1 |
| 20260904221536 | 67 | 330 | 0.0 | 3.0 | 0.00 | 0.69 | 0.68 | 93 | 1002.1 |
| 20260904220055 | 67 | 268 | 2.0 | 7.0 | 0.00 | 0.69 | 0.68 | 93 | 1002.1 |
| 20260904214537 | 67 | 236 | 4.0 | 7.0 | 0.00 | 0.71 | 0.68 | 93 | 1002.1 |
| 20260904213034 | 67 | 260 | 3.0 | 8.0 | 0.00 | 0.71 | 0.68 | 93 | 1002.3 |
| 20260904211536 | 68 | 260 | 3.0 | 9.0 | 0.00 | 0.71 | 0.68 | 93 | 1002.4 |
| 20260904210040 | 68 | 240 | 5.0 | 11.0 | 0.00 | 0.71 | 0.68 | 92 | 1002.6 |
| 20260904204527 | 69 | 221 | 5.0 | 12.0 | 0.00 | 0.72 | 0.68 | 92 | 1002.7 |
| 20260904203041 | 69 | 244 | 5.0 | 10.0 | 0.00 | 0.72 | 0.68 | 92 | 1002.8 |
| 20260904201525 | 68 | 241 | 3.0 | 8.0 | 0.00 | 0.72 | 0.68 | 92 | 1003.0 |
| 20260904200025 | 68 | 286 | 5.0 | 11.0 | 0.00 | 0.72 | 0.68 | 92 | 1003.2 |
| 20260904194524 | 68 | 214 | 5.0 | 9.0 | 0.00 | 0.72 | 0.68 | 93 | 1003.1 |
| 20260904193022 | 68 | 239 | 5.0 | 10.0 | 0.00 | 0.72 | 0.68 | 93 | 1003.2 |
| 20260904191521 | 69 | 240 | 6.0 | 10.0 | 0.00 | 0.72 | 0.68 | 92 | 1003.3 |
| 20260904190020 | 70 | 214 | 4.0 | 11.0 | 0.00 | 0.72 | 0.68 | 93 | 1003.2 |
| 20260904184524 | 69 | 257 | 5.0 | 8.0 | 0.00 | 0.72 | 0.68 | 93 | 1003.3 |
| 20260904183015 | 68 | 256 | 3.0 | 11.0 | 0.00 | 0.72 | 0.68 | 93 | 1003.4 |